Regional Weather Roundup
Issued by NWS

Home | Current Version | Previous Version | Text Only | Print | Product List | Glossary On
Versions: 1 2 3 4 5 6 7 8 9 10 11 12 13 14 15 16 17 18 19 20 21 22 23 24 25 26 27 28 29 30 31 32 33 34 35 36 37 38 39 40 41 42 43 44 45 46 47 48 49 50
000
ASUS44 KEWX 261510
RWRTX
SOUTH TEXAS REGIONAL WEATHER ROUNDUP
NATIONAL WEATHER SERVICE AUSTIN/SAN ANTONIO TX
900 AM CST MON JAN 26 2015

NOTE: "FAIR" INDICATED FEW OR NO CLOUDS BELOW 12,000 FEET WITH NO
SIGNIFICANT WEATHER AND/OR OBSTRUCTIONS TO VISIBILITY.

* - THESE STATIONS ARE NOT NWS OR FAA STATIONS...AND ARE NOT SUBJECT
    TO NWS AND FAA QUALITY CONTROL.

TXZ171-172-183>190-261600-
TEXAS HILL COUNTRY AND EDWARDS PLATEAU

CITY           SKY/WX    TMP DP  RH WIND       PRES   REMARKS
JUNCTION       MOSUNNY   35  31  85 SW5       30.29S WCI  31
*LLANO         PTSUNNY   43  34  70 CALM      30.32R
BURNET         PTSUNNY   46  33  60 W5        30.29S WCI  44
*HORSESHOE BAY PTSUNNY   46  37  71 CALM      30.28R
*KERRVILLE     PTSUNNY   38  34  85 W3        30.29S
*FREDERICKSBRG PTSUNNY   41  33  73 CALM      30.27F
*ROCKSPRINGS   MOSUNNY   50  30  46 CALM      30.31S
*BOERNE STAGE  PTSUNNY   52  34  50 N3        30.28S
*CASTROVILLE   PTSUNNY   45  36  70 W6        30.30R WCI  42
HONDO          PTSUNNY   45  38  76 W3        30.30R
*UVALDE        PTSUNNY   45  36  70 CALM      30.31R
DEL RIO        CLOUDY    43  40  89 NW5       30.30R WCI  40
LAUGHLIN AFB   CLOUDY    41  37  84 N6        30.30R WCI  37
CARRIZO SPRGS  PTSUNNY   46  37  71 CALM      30.29R
$$

TXZ173-191>194-202-209-217>225-228-261600-
CENTRAL AND SOUTH CENTRAL TEXAS

CITY           SKY/WX    TMP DP  RH WIND       PRES   REMARKS
GEORGETOWN     SUNNY     46  36  66 CALM      30.27S
AUSTIN/BERGSTM PTSUNNY   47  37  68 CALM      30.27S
AUSTIN/MABRY   PTSUNNY   49  34  56 NW7       30.28S WCI  46
*AUSTIN/EXEC   PTSUNNY   50  36  57 NW5       30.28S WCI  48
*LAGO VISTA    PTSUNNY   51  33  50 W6        30.28R
SAN MARCOS     SUNNY     45  36  70 NW6       30.27R WCI  41
NEW BRAUNFELS  PTSUNNY   46  39  76 CALM      30.26S
RANDOLPH AFB   PTSUNNY   50  35  57 NW5       30.27R WCI  48
PT SAN ANTONIO PTSUNNY   49  35  57 CALM      30.26R
SAN ANTONIO    PTSUNNY   52  38  58 NW5       30.27S
STINSON FIELD  PTSUNNY   48  40  73 CALM      30.27R
*PLEASANTON    PTSUNNY   48  37  66 CALM      30.29R
*LA GRANGE     SUNNY     49  38  67 CALM      30.26S
*GIDDINGS      NOT AVBL
*GONZALES      SUNNY     48  40  73 CALM      30.27S
$$

TXZ163>164-176>182-195>201-210>213-226-227-235-261600-
SOUTHEAST TEXAS

CITY           SKY/WX    TMP DP  RH WIND       PRES   REMARKS
COLLEGE STN    SUNNY     47  32  56 W8        30.28R WCI  43
*BRYAN         SUNNY     46  34  62 SW7       30.28R WCI  42
*CALDWELL      SUNNY     48  32  53 W5        30.31S WCI  46
*CROCKETT      SUNNY     50  37  62 NE6       30.25R WCI  48
*BRENHAM       SUNNY     50  35  55 CALM      30.29S
HUNTSVILLE     SUNNY     48  32  53 CALM      30.24R
CONROE         SUNNY     49  32  52 N6        30.26R WCI  46
HOUSTON BUSH   MOSUNNY   52  31  44 W3        30.26R
HOUSTON HOBBY  MOSUNNY   51  34  52 W7        30.27R
*HOUSTON SW AP SUNNY     51  36  57 W5        30.28R
PEARLAND       SUNNY     51  35  54 W5        30.29R
HOUSTON HOOKS  SUNNY     50  32  50 W5        30.26R WCI  48
ELLINGTON FLD  MOSUNNY   57  32  38 W5        30.28R
SUGAR LAND     SUNNY     53  34  48 NW8       30.28R
*HOUSTON EXEC    N/A    N/A N/A N/A MISG        N/A
*CLEVELAND MUN NOT AVBL
*WHARTON       MOSUNNY   51  38  62 N7        30.29S
*COLUMBUS      FAIR      50  37  60 NW3       30.28S
$$

TXZ214>216-236>238-261600-
THE UPPER TEXAS COAST

CITY           SKY/WX    TMP DP  RH WIND       PRES   REMARKS
*ORANGE        SUNNY     50  34  54 NW9       30.24R WCI  46
PORT ARTHUR    SUNNY     54  34  46 NW9       30.23R
GALVESTON      SUNNY     52  40  63 W8        30.28R
ANGLETON       SUNNY     51  35  54 VRB3      30.28R
*BAY CITY      MOSUNNY   50  41  73 NW5       30.28R WCI  48
PALACIOS       MOSUNNY   52  41  66 N9        30.28R
$$

TXZ229>234-239>247-261600-
TEXAS COASTAL BEND AND RIO GRANDE PLAINS

CITY           SKY/WX    TMP DP  RH WIND       PRES   REMARKS
VICTORIA       MOSUNNY   52  40  63 CALM      30.28S
*BEEVILLE      MOSUNNY   51  41  69 NW6       30.28R
ROCKPORT       MOSUNNY   54  41  61 W5        30.28R
*PORT ARANSAS  MOSUNNY   54  46  76 W3        30.28R
*PORT LAVACA   MOSUNNY   51  41  69 N6        30.28S
*INGLESIDE     MOSUNNY   51  44  76 CALM      30.28S
CORPUS CHRISTI PTSUNNY   53  43  68 W6        30.29R
CORPUS NAS     PTSUNNY   54  45  71 W5        30.28R
*ROBSTOWN      MOSUNNY   53  46  75 W3        30.30R
ALICE          MOSUNNY   55  42  61 NW5       30.29R
KINGSVILLE NAS PTSUNNY   55  46  71 CALM      30.29R
COTULLA        PTSUNNY   47  40  76 CALM      30.30R
*FAITH RANCH   PTSUNNY   50  37  62 CALM      30.30R
LAREDO         SUNNY     55  50  82 W6        30.33R
$$

TXZ248>255-261600-
DEEP SOUTH TEXAS

CITY           SKY/WX    TMP DP  RH WIND       PRES   REMARKS
BROWNSVILLE    SUNNY     59  45  59 N5        30.29R
PORT ISABEL    SUNNY     58  46  64 N6        30.28R
*SOUTH PADRE   SUNNY    N/A N/A N/A N6        30.28R
HARLINGEN      SUNNY     57  46  66 N5        30.29R
*HEBBRONVILLE  SUNNY     56  42  60 CALM      30.30R
MCALLEN        SUNNY     55  44  66 W3        30.31R
*WESLACO       SUNNY     56  43  61 CALM      30.30R
FALFURRIAS     MOSUNNY   54  42  64 CALM      30.29R
EDINBURG       SUNNY     58  43  57 CALM      30.30R
*ZAPATA        SUNNY     52  41  67 CALM      30.30R
$$

TXZ213>215-236>238-242>244-246-247-251-254-255-261600-
CMAN STATIONS

STATION/POSITION TIME  TEMP    WIND        PRES    WAVE
                       AIR SEA DIR/SP/G            HT/PER
                 (UTC) (F)     (DEG/KT/KT) (MB)    (FT/S)
SEA RIM ST PARK  1500   50     310/  6/  8 1024.5
NORTH JETTY/GLS  1500   54 53  290/  6/  7   N/A
EAGLE POINT      1500   50 51  270/  3/  4 1024.9
MORGANS POINT    1500   52      10/  5/  9 1024.6
MISSION/ARANSAS  1400   52     VRB  6      1025.0
PORT O`CONNOR    1500          330/  9/ 10   N/A
PORT ARANSAS     1500   54 55  280/  5/  6 1025.9
MALAQUITE BEACH  1500   54 58  270/  3/  4 1024.8
BAFFIN BAY       1500   53     330/  7/  8 1025.6
PORT ISABEL      1500   56 56  350/  6/  9 1025.2
$$

GMZ080-GMZ150>470-261600-
OFFSHORE BUOY REPORTS

STATION/POSITION TIME  TEMP    WIND        PRES    WAVE
                       AIR SEA DIR/SP/G            HT/PER
                 (UTC) (F)     (DEG/KT/KT) (MB)    (FT/S)
20 E GALVESTON   1500   53 55  330/ 10/ 12 1024.5    2/ 5
90 E PT ARANSAS  1500   63 68  340/ 16/ 19 1024.8    2/ 4
35 NE PT MANSFLD 1500   64 67  330/  6/  8 1025.1    1/ 4
200 E PT ISABEL  1500   68 72  350/ 17/ 21 1023.4    6/ 6
$$



USA.gov is the U.S. government's official web portal to all federal, state and local government web resources and services.